| time (UTC) | temp F | wind direction | speed MPH | gust MPH | rain 1hr in | rain 24hr in | rain mn in | humidity % | barometer mb |
| 20260504060137 | 45 | 65 | 0.0 | 0.0 | 0.00 | 0.00 | 0.00 | 72 | 1015.1 |
| 20260504050605 | 46 | 63 | 0.0 | 1.0 | 0.00 | 0.00 | 0.00 | 68 | 1015.4 |
| 20260504045559 | 46 | 54 | 0.0 | 0.0 | 0.00 | 0.00 | 0.00 | 70 | 1015.4 |
| 20260504045054 | 46 | 54 | 0.0 | 0.0 | 0.00 | 0.00 | 0.00 | 67 | 1015.4 |
| 20260504044552 | 46 | 54 | 0.0 | 0.0 | 0.00 | 0.00 | 0.00 | 68 | 1015.5 |
| 20260504044049 | 46 | 56 | 0.0 | 0.0 | 0.00 | 0.00 | 0.00 | 66 | 1015.5 |
| 20260504043546 | 46 | 56 | 0.0 | 0.0 | 0.00 | 0.00 | 0.00 | 69 | 1015.5 |
| 20260504043043 | 46 | 56 | 0.0 | 1.0 | 0.00 | 0.00 | 0.00 | 69 | 1015.4 |
| 20260504042540 | 46 | 66 | 0.0 | 0.0 | 0.00 | 0.00 | 0.00 | 68 | 1015.3 |
| 20260504042037 | 46 | 71 | 0.0 | 1.0 | 0.00 | 0.00 | 0.00 | 66 | 1015.4 |
| 20260504041533 | 46 | 74 | 0.0 | 1.0 | 0.00 | 0.00 | 0.00 | 66 | 1015.4 |
| 20260504041029 | 46 | 73 | 0.0 | 1.0 | 0.00 | 0.00 | 0.00 | 67 | 1015.4 |
| 20260504040527 | 46 | 90 | 1.0 | 1.0 | 0.00 | 0.00 | 0.00 | 66 | 1015.4 |
| 20260504040024 | 46 | 72 | 0.0 | 1.0 | 0.00 | 0.00 | 0.00 | 69 | 1015.2 |
| 20260504035521 | 45 | 68 | 0.0 | 0.0 | 0.00 | 0.00 | 0.00 | 69 | 1015.5 |
| 20260504035017 | 45 | 87 | 1.0 | 2.0 | 0.00 | 0.00 | 0.00 | 68 | 1015.3 |
| 20260504034514 | 45 | 75 | 1.0 | 1.0 | 0.00 | 0.00 | 0.00 | 70 | 1015.4 |
| 20260504034011 | 45 | 56 | 0.0 | 0.0 | 0.00 | 0.00 | 0.00 | 70 | 1015.5 |
| 20260504033509 | 45 | 56 | 0.0 | 1.0 | 0.00 | 0.00 | 0.00 | 71 | 1015.4 |
| 20260504033006 | 45 | 58 | 0.0 | 1.0 | 0.00 | 0.00 | 0.00 | 70 | 1015.5 |
| 20260504032503 | 45 | 65 | 0.0 | 0.0 | 0.00 | 0.00 | 0.00 | 68 | 1015.2 |
| 20260504031959 | 45 | 48 | 0.0 | 0.0 | 0.00 | 0.00 | 0.00 | 70 | 1015.4 |
| 20260504031456 | 45 | 48 | 0.0 | 1.0 | 0.00 | 0.00 | 0.00 | 69 | 1015.4 |
| 20260504030953 | 45 | 45 | 0.0 | 1.0 | 0.00 | 0.00 | 0.00 | 69 | 1015.3 |
| 20260504030450 | 45 | 48 | 0.0 | 1.0 | 0.00 | 0.00 | 0.00 | 69 | 1015.6 |
| 20260504025946 | 45 | 53 | 0.0 | 0.0 | 0.00 | 0.00 | 0.00 | 69 | 1015.5 |
| 20260504025443 | 44 | 49 | 0.0 | 1.0 | 0.00 | 0.00 | 0.00 | 69 | 1015.4 |
| 20260504024940 | 45 | 35 | 1.0 | 1.0 | 0.00 | 0.00 | 0.00 | 69 | 1015.5 |
| 20260504024437 | 45 | 50 | 0.0 | 1.0 | 0.00 | 0.00 | 0.00 | 69 | 1015.5 |
| 20260504023934 | 44 | 45 | 0.0 | 1.0 | 0.00 | 0.00 | 0.00 | 70 | 1015.2 |
| 20260504023430 | 44 | 38 | 1.0 | 2.0 | 0.00 | 0.00 | 0.00 | 69 | 1015.4 |
| 20260504022926 | 44 | 27 | 1.0 | 2.0 | 0.00 | 0.00 | 0.00 | 68 | 1015.3 |
| 20260504022423 | 44 | 34 | 1.0 | 1.0 | 0.00 | 0.00 | 0.00 | 70 | 1015.3 |
| 20260504021920 | 44 | 46 | 0.0 | 1.0 | 0.00 | 0.00 | 0.00 | 71 | 1015.5 |
| 20260504021417 | 44 | 41 | 0.0 | 1.0 | 0.00 | 0.00 | 0.00 | 74 | 1015.4 |
| 20260504020914 | 44 | 50 | 0.0 | 1.0 | 0.00 | 0.00 | 0.00 | 73 | 1015.5 |
| 20260504020410 | 44 | 41 | 0.0 | 1.0 | 0.00 | 0.00 | 0.00 | 73 | 1015.2 |
| 20260504015907 | 43 | 38 | 0.0 | 0.0 | 0.00 | 0.00 | 0.00 | 73 | 1015.3 |
| 20260504015403 | 44 | 39 | 0.0 | 1.0 | 0.00 | 0.00 | 0.00 | 72 | 1015.0 |
| 20260504014859 | 44 | 39 | 0.0 | 1.0 | 0.00 | 0.00 | 0.00 | 73 | 1015.1 |
| 20260504014355 | 44 | 42 | 0.0 | 1.0 | 0.00 | 0.00 | 0.00 | 73 | 1014.9 |
| 20260504013853 | 44 | 43 | 0.0 | 0.0 | 0.00 | 0.00 | 0.00 | 74 | 1014.9 |
| 20260504013351 | 45 | 41 | 0.0 | 1.0 | 0.00 | 0.00 | 0.00 | 76 | 1015.1 |
| 20260504012847 | 45 | 41 | 1.0 | 1.0 | 0.00 | 0.00 | 0.00 | 74 | 1014.7 |
| 20260504012345 | 45 | 41 | 0.0 | 1.0 | 0.00 | 0.00 | 0.00 | 76 | 1014.6 |
| 20260504011842 | 46 | 41 | 0.0 | 1.0 | 0.00 | 0.00 | 0.00 | 75 | 1014.8 |
| 20260504011338 | 46 | 42 | 0.0 | 0.0 | 0.00 | 0.00 | 0.00 | 75 | 1014.6 |
| 20260504010835 | 46 | 60 | 0.0 | 1.0 | 0.00 | 0.00 | 0.00 | 72 | 1014.7 |
| 20260504010330 | 47 | 52 | 0.0 | 1.0 | 0.00 | 0.00 | 0.00 | 69 | 1014.3 |
| 20260504005827 | 47 | 50 | 0.0 | 1.0 | 0.00 | 0.00 | 0.00 | 69 | 1014.7 |
| 20260504005324 | 47 | 50 | 0.0 | 0.0 | 0.00 | 0.00 | 0.00 | 68 | 1014.2 |
| 20260504004822 | 48 | 50 | 0.0 | 1.0 | 0.00 | 0.00 | 0.00 | 70 | 1014.3 |
| 20260504004319 | 48 | 49 | 0.0 | 0.0 | 0.00 | 0.00 | 0.00 | 62 | 1014.3 |
| 20260504003815 | 49 | 44 | 0.0 | 0.0 | 0.00 | 0.00 | 0.00 | 64 | 1014.0 |
| 20260504003312 | 49 | 43 | 0.0 | 0.0 | 0.00 | 0.00 | 0.00 | 65 | 1014.2 |
| 20260504002809 | 50 | 50 | 0.0 | 0.0 | 0.00 | 0.00 | 0.00 | 63 | 1014.2 |
| 20260504002306 | 51 | 46 | 0.0 | 0.0 | 0.00 | 0.00 | 0.00 | 63 | 1014.2 |
| 20260504001804 | 51 | 49 | 0.0 | 0.0 | 0.00 | 0.00 | 0.00 | 58 | 1014.2 |
| 20260504001300 | 52 | 45 | 0.0 | 0.0 | 0.00 | 0.00 | 0.00 | 50 | 1014.2 |
| 20260504000757 | 53 | 49 | 0.0 | 0.0 | 0.00 | 0.00 | 0.00 | 45 | 1014.2 |
| 20260504000254 | 54 | 45 | 0.0 | 0.0 | 0.00 | 0.00 | 0.00 | 43 | 1014.0 |
| 20260503235752 | 55 | 48 | 0.0 | 0.0 | 0.00 | 0.00 | 0.00 | 44 | 1014.1 |
| 20260503235249 | 55 | 50 | 0.0 | 0.0 | 0.00 | 0.00 | 0.00 | 40 | 1014.0 |
| 20260503234747 | 56 | 59 | 0.0 | 0.0 | 0.00 | 0.00 | 0.00 | 42 | 1014.1 |
| 20260503234245 | 58 | 47 | 0.0 | 1.0 | 0.00 | 0.00 | 0.00 | 40 | 1014.0 |
| 20260503233742 | 58 | 28 | 1.0 | 1.0 | 0.00 | 0.00 | 0.00 | 33 | 1014.3 |
| 20260503233237 | 59 | 54 | 0.0 | 1.0 | 0.00 | 0.00 | 0.00 | 32 | 1014.1 |
| 20260503232734 | 59 | 56 | 0.0 | 1.0 | 0.00 | 0.00 | 0.00 | 34 | 1014.1 |
| 20260503232232 | 59 | 60 | 0.0 | 1.0 | 0.00 | 0.00 | 0.00 | 33 | 1014.0 |
| 20260503231730 | 59 | 58 | 0.0 | 1.0 | 0.00 | 0.00 | 0.00 | 31 | 1014.3 |
| 20260503231226 | 60 | 50 | 0.0 | 1.0 | 0.00 | 0.00 | 0.00 | 35 | 1014.4 |
| 20260503230722 | 60 | 71 | 0.0 | 2.0 | 0.00 | 0.00 | 0.00 | 34 | 1013.9 |
| 20260503230220 | 60 | 58 | 1.0 | 1.0 | 0.00 | 0.00 | 0.00 | 29 | 1014.2 |
| 20260503225717 | 60 | 202 | 1.0 | 2.0 | 0.00 | 0.00 | 0.00 | 30 | 1014.0 |
| 20260503225217 | 61 | 51 | 0.0 | 3.0 | 0.00 | 0.00 | 0.00 | 32 | 1014.0 |
| 20260503224715 | 61 | 100 | 1.0 | 2.0 | 0.00 | 0.00 | 0.00 | 31 | 1013.8 |
| 20260503224212 | 61 | 61 | 1.0 | 2.0 | 0.00 | 0.00 | 0.00 | 31 | 1014.1 |
| 20260503223710 | 61 | 90 | 0.0 | 3.0 | 0.00 | 0.00 | 0.00 | 29 | 1013.8 |
| 20260503223207 | 61 | 44 | 1.0 | 2.0 | 0.00 | 0.00 | 0.00 | 29 | 1013.9 |
| 20260503222703 | 62 | 2 | 0.0 | 3.0 | 0.00 | 0.00 | 0.00 | 30 | 1013.8 |
| 20260503222201 | 62 | 25 | 0.0 | 1.0 | 0.00 | 0.00 | 0.00 | 28 | 1013.7 |
| 20260503221659 | 63 | 47 | 0.0 | 1.0 | 0.00 | 0.00 | 0.00 | 29 | 1014.2 |
| 20260503221156 | 63 | 80 | 1.0 | 3.0 | 0.00 | 0.00 | 0.00 | 27 | 1014.0 |
| 20260503220653 | 63 | 211 | 1.0 | 4.0 | 0.00 | 0.00 | 0.00 | 29 | 1014.2 |
| 20260503220149 | 63 | 179 | 3.0 | 4.0 | 0.00 | 0.00 | 0.00 | 26 | 1014.0 |
| 20260503215647 | 63 | 66 | 1.0 | 4.0 | 0.00 | 0.00 | 0.00 | 26 | 1014.0 |
| 20260503215143 | 64 | 47 | 0.0 | 2.0 | 0.00 | 0.00 | 0.00 | 27 | 1014.1 |
| 20260503214643 | 64 | 58 | 1.0 | 2.0 | 0.00 | 0.00 | 0.00 | 25 | 1014.1 |
| 20260503214138 | 63 | 49 | 0.0 | 2.0 | 0.00 | 0.00 | 0.00 | 27 | 1014.2 |
| 20260503213637 | 63 | 29 | 2.0 | 3.0 | 0.00 | 0.00 | 0.00 | 27 | 1014.2 |
| 20260503213133 | 63 | 42 | 2.0 | 3.0 | 0.00 | 0.00 | 0.00 | 25 | 1014.3 |
| 20260503212631 | 63 | 40 | 1.0 | 6.0 | 0.00 | 0.00 | 0.00 | 27 | 1014.4 |
| 20260503212128 | 63 | 184 | 3.0 | 3.0 | 0.00 | 0.00 | 0.00 | 26 | 1014.5 |
| 20260503211626 | 63 | 35 | 1.0 | 4.0 | 0.00 | 0.00 | 0.00 | 25 | 1014.3 |
| 20260503211121 | 63 | 56 | 2.0 | 3.0 | 0.00 | 0.00 | 0.00 | 27 | 1014.4 |
| 20260503210618 | 63 | 53 | 0.0 | 3.0 | 0.00 | 0.00 | 0.00 | 27 | 1014.2 |
| 20260503210114 | 63 | 341 | 3.0 | 6.0 | 0.00 | 0.00 | 0.00 | 27 | 1014.2 |
| 20260503205610 | 65 | 66 | 0.0 | 6.0 | 0.00 | 0.00 | 0.00 | 26 | 1014.3 |
| 20260503205107 | 64 | 72 | 1.0 | 3.0 | 0.00 | 0.00 | 0.00 | 26 | 1014.2 |
| 20260503204604 | 64 | 25 | 3.0 | 4.0 | 0.00 | 0.00 | 0.00 | 25 | 1014.3 |
| 20260503204101 | 64 | 235 | 3.0 | 3.0 | 0.00 | 0.00 | 0.00 | 27 | 1014.4 |
| 20260503203558 | 65 | 34 | 0.0 | 3.0 | 0.00 | 0.00 | 0.00 | 26 | 1014.6 |
| 20260503203055 | 63 | 53 | 0.0 | 6.0 | 0.00 | 0.00 | 0.00 | 27 | 1014.7 |
| 20260503202553 | 63 | 358 | 4.0 | 6.0 | 0.00 | 0.00 | 0.00 | 27 | 1014.6 |
| 20260503202050 | 63 | 212 | 3.0 | 6.0 | 0.00 | 0.00 | 0.00 | 26 | 1014.6 |
| 20260503201549 | 63 | 26 | 2.0 | 8.0 | 0.00 | 0.00 | 0.00 | 27 | 1014.7 |
| 20260503201045 | 65 | 56 | 1.0 | 3.0 | 0.00 | 0.00 | 0.00 | 25 | 1014.7 |
| 20260503200541 | 64 | 57 | 2.0 | 4.0 | 0.00 | 0.00 | 0.00 | 26 | 1014.9 |
| 20260503200038 | 64 | 0 | 3.0 | 4.0 | 0.00 | 0.00 | 0.00 | 25 | 1014.8 |
| 20260503195536 | 63 | 54 | 2.0 | 4.0 | 0.00 | 0.00 | 0.00 | 25 | 1015.1 |
| 20260503195032 | 63 | 27 | 0.0 | 3.0 | 0.00 | 0.00 | 0.00 | 28 | 1015.2 |
| 20260503194530 | 62 | 2 | 2.0 | 9.0 | 0.00 | 0.00 | 0.00 | 27 | 1015.0 |
| 20260503194029 | 62 | 38 | 2.0 | 6.0 | 0.00 | 0.00 | 0.00 | 26 | 1015.2 |
| 20260503193527 | 63 | 175 | 2.0 | 3.0 | 0.00 | 0.00 | 0.00 | 31 | 1014.9 |
| 20260503193021 | 63 | 187 | 1.0 | 2.0 | 0.00 | 0.00 | 0.00 | 27 | 1015.4 |
| 20260503192518 | 62 | 138 | 2.0 | 3.0 | 0.00 | 0.00 | 0.00 | 29 | 1015.5 |
| 20260503192014 | 62 | 3 | 2.0 | 6.0 | 0.00 | 0.00 | 0.00 | 29 | 1015.6 |
| 20260503191511 | 62 | 23 | 1.0 | 7.0 | 0.00 | 0.00 | 0.00 | 32 | 1015.4 |
| 20260503191008 | 63 | 350 | 2.0 | 3.0 | 0.00 | 0.00 | 0.00 | 28 | 1015.6 |
| 20260503190505 | 62 | 36 | 1.0 | 8.0 | 0.00 | 0.00 | 0.00 | 29 | 1015.7 |
| 20260503190002 | 61 | 74 | 1.0 | 6.0 | 0.00 | 0.00 | 0.00 | 30 | 1015.8 |
| 20260503185458 | 60 | 147 | 3.0 | 6.0 | 0.00 | 0.00 | 0.00 | 29 | 1015.8 |
| 20260503184957 | 61 | 312 | 2.0 | 9.0 | 0.00 | 0.00 | 0.00 | 31 | 1016.0 |
| 20260503184454 | 61 | 133 | 1.0 | 7.0 | 0.00 | 0.00 | 0.00 | 28 | 1016.0 |
| 20260503183950 | 61 | 30 | 2.0 | 7.0 | 0.00 | 0.00 | 0.00 | 30 | 1016.1 |
| 20260503183447 | 60 | 54 | 0.0 | 3.0 | 0.00 | 0.00 | 0.00 | 28 | 1016.1 |
| 20260503182944 | 61 | 51 | 0.0 | 2.0 | 0.00 | 0.00 | 0.00 | 31 | 1016.3 |
| 20260503182443 | 61 | 29 | 1.0 | 7.0 | 0.00 | 0.00 | 0.00 | 29 | 1016.1 |
| 20260503181940 | 62 | 33 | 2.0 | 4.0 | 0.00 | 0.00 | 0.00 | 29 | 1016.2 |
| 20260503181437 | 62 | 12 | 4.0 | 6.0 | 0.00 | 0.00 | 0.00 | 28 | 1016.2 |
| 20260503180933 | 61 | 192 | 4.0 | 7.0 | 0.00 | 0.00 | 0.00 | 29 | 1016.1 |
| 20260503180432 | 59 | 36 | 0.0 | 1.0 | 0.00 | 0.00 | 0.00 | 33 | 1016.1 |
| 20260503175928 | 59 | 18 | 1.0 | 3.0 | 0.00 | 0.00 | 0.00 | 34 | 1016.5 |
| 20260503175426 | 59 | 127 | 3.0 | 6.0 | 0.00 | 0.00 | 0.00 | 31 | 1016.1 |
| 20260503174921 | 60 | 67 | 1.0 | 4.0 | 0.00 | 0.00 | 0.00 | 31 | 1016.2 |
| 20260503174420 | 59 | 39 | 2.0 | 6.0 | 0.00 | 0.00 | 0.00 | 32 | 1016.2 |
| 20260503173920 | 59 | 355 | 6.0 | 7.0 | 0.00 | 0.00 | 0.00 | 30 | 1016.3 |
| 20260503173416 | 60 | 119 | 0.0 | 3.0 | 0.00 | 0.00 | 0.00 | 32 | 1016.3 |
| 20260503172913 | 60 | 154 | 2.0 | 2.0 | 0.00 | 0.00 | 0.00 | 33 | 1016.3 |
| 20260503172411 | 58 | 144 | 2.0 | 7.0 | 0.00 | 0.00 | 0.00 | 34 | 1016.1 |
| 20260503171907 | 60 | 108 | 1.0 | 3.0 | 0.00 | 0.00 | 0.00 | 30 | 1016.6 |
| 20260503171404 | 60 | 108 | 2.0 | 6.0 | 0.00 | 0.00 | 0.00 | 34 | 1016.6 |
| 20260503170901 | 59 | 84 | 1.0 | 4.0 | 0.00 | 0.00 | 0.00 | 34 | 1016.5 |
| 20260503170357 | 59 | 158 | 3.0 | 3.0 | 0.00 | 0.00 | 0.00 | 33 | 1016.6 |
| 20260503150749 | 53 | 36 | 2.0 | 4.0 | 0.00 | 0.00 | 0.00 | 42 | 1017.7 |
| 20260503150245 | 53 | 43 | 3.0 | 3.0 | 0.00 | 0.00 | 0.00 | 39 | 1017.6 |
| 20260503140210 | 50 | 49 | 5.0 | 6.0 | 0.00 | 0.00 | 0.00 | 43 | 1017.3 |
| 20260503131140 | 46 | 43 | 2.0 | 7.0 | 0.00 | 0.00 | 0.00 | 52 | 1017.5 |
| 20260503130637 | 46 | 213 | 2.0 | 3.0 | 0.00 | 0.00 | 0.00 | 50 | 1017.5 |
| 20260503130135 | 47 | 15 | 3.0 | 6.0 | 0.00 | 0.00 | 0.00 | 51 | 1017.3 |
| 20260503110527 | 34 | 51 | 0.0 | 0.0 | 0.00 | 0.00 | 0.00 | 89 | 1016.7 |
| 20260503090414 | 40 | 54 | 0.0 | 0.0 | 0.00 | 0.00 | 0.00 | 76 | 1015.2 |
| 20260503081340 | 40 | 50 | 0.0 | 0.0 | 0.00 | 0.00 | 0.00 | 77 | 1015.0 |
| 20260503080837 | 39 | 53 | 0.0 | 0.0 | 0.00 | 0.00 | 0.00 | 79 | 1015.0 |
| 20260503080334 | 39 | 50 | 0.0 | 0.0 | 0.00 | 0.00 | 0.00 | 79 | 1014.9 |
| 20260503072811 | 40 | 46 | 0.0 | 1.0 | 0.00 | 0.00 | 0.00 | 76 | 1014.8 |
| 20260503072308 | 40 | 55 | 0.0 | 0.0 | 0.00 | 0.00 | 0.00 | 77 | 1014.7 |
| 20260503071804 | 39 | 79 | 1.0 | 1.0 | 0.00 | 0.00 | 0.00 | 75 | 1014.7 |
| 20260503071301 | 39 | 52 | 0.0 | 0.0 | 0.00 | 0.00 | 0.00 | 79 | 1014.4 |
| 20260503070757 | 39 | 53 | 0.0 | 0.0 | 0.00 | 0.00 | 0.00 | 79 | 1014.6 |
| 20260503070255 | 39 | 50 | 0.0 | 0.0 | 0.00 | 0.00 | 0.00 | 78 | 1014.7 |